Hauptseite
METAR-TAF:

METAR-TAF

Flughäfen :

Fliegerhorst Nörvenich

Nörvenich, Deutschland

Breite: 50-50N, Länge: 006-40E, Höhe: 118 m

Beobachtung

Neuester Wetterbericht von vor 11 Minuten, um 13:20 UTC
Wind 7 kt aus West
Temperatur 25°C
Luftfeuchtigkeit 32%
Luftdruck 1012 hPa
Sichtweite 10 km oder mehr
Leicht bewölkt in der Höhe von 14000 ft

METAR: ETNN 151320Z 26007KT 9999 FEW140 25/07 Q1012 BLU+

Zeit: 15:31 (13:31 UTC)


TAF: fehlend

Wetterbeobachtungen und Prognosen von mehr als 4000 Flughäfen (METAR und TAF Bericht).

Die verfügbaren Stationen werden durch gelbe und rote Markierungen auf der Karte dargestellt.

Führen Sie die Maus auf sie, um den Namen der Station zu sehen.

Darauf klicken, um die Beobachtung von Wetterbeobachtungen und Prognosen zu sehen.

Um die Karte zu ändern : klicken Sie auf den grünen Tasten mit einem schwarzen Kreuz Zum Vergrößern, auf den grünen Button mit einem Gedankenstrich zu verkleinern, oder auf die grünen Pfeile für benachbarte Karten.


METAR-TAF: